SBD24 EFHK-KSEA

Flight info

Callsign SBD24
Flight time N/A
Altitude 32000
Route NEPEK DCT NESUK DCT RISEM DCT SIRMO/N0478F340 DCT ELRES DCT 77N000E/M083F340 80N020W 81N045W/N0484F340 DCT BUDUM DCT 79N080W 74N100W/N0488F360 70N109W 65N114W/N0485F370 DCT YZF/N0476F360 DCT YQU/N0473F370 DCT YDC/N0470F380 DCT JAKSN
Aircraft B77W/H-SDE1E2E3FGHIJ2J3J4J5M1RWXY/LB1D1

Departure

Time 2026-04-20 04:30
Airport Helsinki Vantaa Airport (EFHK)

Arrival

Time N/A
Airport Seattle–Tacoma International Airport (KSEA)
Time Latitude Longitude Altitude Speed Heading
2026-04-20 04:09 60.31383 24.95864 198 ft 0 kts 328°
2026-04-20 04:21 60.31379 24.95868 197 ft 1 kts 328°
2026-04-20 04:21 60.31361 24.95892 197 ft 3 kts 326°
2026-04-20 04:21 60.31348 24.95916 197 ft 1 kts 295°
2026-04-20 04:21 60.31345 24.95940 197 ft 2 kts 265°
2026-04-20 04:22 60.31350 24.95984 197 ft 2 kts 251°
2026-04-20 04:22 60.31351 24.95988 198 ft 1 kts 249°
2026-04-20 04:22 60.31345 24.95957 198 ft 2 kts 238°
2026-04-20 04:22 60.31335 24.95941 198 ft 1 kts 204°
2026-04-20 04:23 60.31317 24.95928 198 ft 2 kts 209°
2026-04-20 04:23 60.31301 24.95898 198 ft 3 kts 225°
2026-04-20 04:23 60.31297 24.95890 198 ft 0 kts 226°
2026-04-20 04:25 60.31297 24.95889 198 ft 0 kts 226°
2026-04-20 04:25 60.31270 24.95834 197 ft 10 kts 226°
2026-04-20 04:25 60.31215 24.95715 197 ft 11 kts 229°
2026-04-20 04:25 60.31170 24.95604 198 ft 9 kts 239°
2026-04-20 04:26 60.31182 24.95495 197 ft 9 kts 308°
2026-04-20 04:26 60.31233 24.95391 197 ft 10 kts 316°
2026-04-20 04:26 60.31290 24.95280 197 ft 11 kts 317°
2026-04-20 04:26 60.31354 24.95162 197 ft 13 kts 318°
2026-04-20 04:27 60.31422 24.95032 197 ft 13 kts 313°
2026-04-20 04:27 60.31450 24.94958 197 ft 7 kts 284°
2026-04-20 04:27 60.31393 24.94783 197 ft 23 kts 229°
2026-04-20 04:27 60.31261 24.94487 197 ft 33 kts 228°
2026-04-20 04:28 60.31081 24.94091 197 ft 41 kts 228°
2026-04-20 04:28 60.30918 24.93740 197 ft 29 kts 225°
2026-04-20 04:28 60.30825 24.93523 197 ft 9 kts 239°
2026-04-20 04:28 60.30835 24.93411 197 ft 8 kts 318°
2026-04-20 04:29 60.30882 24.93364 197 ft 7 kts 336°
2026-04-20 04:29 60.30938 24.93321 197 ft 11 kts 347°
2026-04-20 04:29 60.31015 24.93381 197 ft 16 kts 44°
2026-04-20 04:29 60.31185 24.93743 197 ft 65 kts 47°
2026-04-20 04:30 60.31637 24.94749 198 ft 125 kts 47°
2026-04-20 04:30 60.32332 24.96270 257 ft 166 kts 46°
2026-04-20 04:30 60.33133 24.97992 753 ft 174 kts 45°
2026-04-20 04:30 60.33933 24.99682 1709 ft 159 kts 45°
2026-04-20 04:31 60.34673 25.01279 2135 ft 163 kts 48°
2026-04-20 04:31 60.35477 25.03080 2336 ft 181 kts 48°
2026-04-20 04:31 60.36348 25.05035 2549 ft 197 kts 48°
2026-04-20 04:31 60.37277 25.07120 2979 ft 204 kts 48°
2026-04-20 04:32 60.38251 25.09311 3364 ft 215 kts 48°
2026-04-20 04:32 60.39330 25.11439 3842 ft 222 kts 35°
2026-04-20 04:32 60.40763 25.12724 4246 ft 237 kts 13°
2026-04-20 04:32 60.42430 25.12952 4837 ft 245 kts
2026-04-20 04:33 60.44139 25.12963 5515 ft 247 kts
2026-04-20 04:33 60.45847 25.13002 6159 ft 249 kts
2026-04-20 04:33 60.47579 25.13060 6795 ft 252 kts
2026-04-20 04:33 60.49330 25.12889 7398 ft 259 kts 351°
2026-04-20 04:34 60.51004 25.11385 7962 ft 272 kts 328°
2026-04-20 04:34 60.52323 25.08601 8548 ft 281 kts 313°
2026-04-20 04:34 60.53488 25.05430 9166 ft 283 kts 311°
2026-04-20 04:34 60.54653 25.02216 9755 ft 286 kts 312°
2026-04-20 04:35 60.55847 24.98962 10260 ft 290 kts 313°
2026-04-20 04:35 60.57066 24.95657 10621 ft 299 kts 313°
2026-04-20 04:35 60.58344 24.92196 10843 ft 316 kts 312°
2026-04-20 04:35 60.59685 24.88555 11075 ft 332 kts 312°
2026-04-20 04:36 60.62567 24.80701 11608 ft 363 kts 311°
2026-04-20 04:36 60.64104 24.76503 11941 ft 377 kts 311°
2026-04-20 04:36 60.65690 24.72158 12455 ft 386 kts 311°
2026-04-20 04:37 60.67276 24.67801 13137 ft 390 kts 311°
2026-04-20 04:37 60.68899 24.63338 13853 ft 393 kts 312°
2026-04-20 04:37 60.70529 24.58848 14549 ft 397 kts 311°
2026-04-20 04:37 60.72230 24.54496 15221 ft 398 kts 318°
2026-04-20 04:38 60.74261 24.50726 15887 ft 397 kts 328°
2026-04-20 04:38 60.76591 24.47687 16565 ft 396 kts 338°
2026-04-20 04:38 60.79096 24.45523 17249 ft 395 kts 347°
2026-04-20 04:38 60.81730 24.43971 17950 ft 397 kts 349°
2026-04-20 04:39 60.84366 24.42481 18654 ft 400 kts 349°
2026-04-20 04:39 60.87033 24.40954 19321 ft 403 kts 349°
2026-04-20 04:39 60.89747 24.39385 19949 ft 408 kts 349°
2026-04-20 04:39 60.92490 24.37786 20532 ft 413 kts 349°
2026-04-20 04:40 60.95224 24.36181 21147 ft 417 kts 349°
2026-04-20 04:40 60.98033 24.34524 21771 ft 420 kts 348°
2026-04-20 04:40 61.00842 24.32861 22315 ft 425 kts 348°
2026-04-20 04:40 61.03694 24.31168 22853 ft 429 kts 348°
2026-04-20 04:41 61.06551 24.29466 23469 ft 432 kts 348°
2026-04-20 04:41 61.09417 24.27755 24042 ft 434 kts 348°
2026-04-20 04:41 61.12299 24.26031 24555 ft 438 kts 348°
2026-04-20 04:41 61.15248 24.24263 25056 ft 442 kts 348°
2026-04-20 04:42 61.18176 24.22504 25539 ft 446 kts 348°
2026-04-20 04:42 61.21152 24.20712 26021 ft 449 kts 348°
2026-04-20 04:42 61.24140 24.18909 26511 ft 452 kts 348°
2026-04-20 04:42 61.27156 24.17085 26960 ft 456 kts 348°
2026-04-20 04:43 61.30209 24.15236 27430 ft 459 kts 348°
2026-04-20 04:43 61.33257 24.13385 27911 ft 462 kts 349°
2026-04-20 04:43 61.36349 24.11504 28351 ft 465 kts 348°
2026-04-20 04:43 61.39465 24.09604 28789 ft 469 kts 349°
2026-04-20 04:44 61.42567 24.07709 29233 ft 471 kts 349°
2026-04-20 04:44 61.45745 24.05763 29668 ft 474 kts 349°
2026-04-20 04:44 61.48879 24.03839 30189 ft 474 kts 349°
2026-04-20 04:44 61.51998 24.01920 30805 ft 473 kts 349°
2026-04-20 04:45 61.55163 23.99967 31418 ft 470 kts 349°
2026-04-20 04:45 61.58263 23.98052 31914 ft 469 kts 349°
2026-04-20 04:45 61.61371 23.96130 32309 ft 470 kts 349°
2026-04-20 04:46 61.67632 23.92244 32377 ft 470 kts 349°
2026-04-20 04:46 61.73861 23.88361 32381 ft 469 kts 349°
2026-04-20 04:47 61.80090 23.84462 32380 ft 469 kts 349°
2026-04-20 04:47 61.86325 23.80543 32371 ft 469 kts 349°
2026-04-20 04:48 61.92560 23.76608 32378 ft 470 kts 349°
2026-04-20 04:48 61.98800 23.72652 32385 ft 471 kts 349°
2026-04-20 04:49 62.05057 23.68668 32383 ft 470 kts 349°
2026-04-20 04:49 62.11261 23.64701 32389 ft 472 kts 349°
2026-04-20 04:50 62.17540 23.60669 32392 ft 472 kts 349°
2026-04-20 04:50 62.23797 23.56633 32390 ft 472 kts 349°
2026-04-20 04:51 62.30019 23.52603 32391 ft 471 kts 349°
2026-04-20 04:51 62.36286 23.48526 32390 ft 473 kts 349°
2026-04-20 04:52 62.42579 23.44414 32391 ft 472 kts 349°
2026-04-20 04:52 62.48810 23.40325 32391 ft 473 kts 349°